Weather History for Winona, MN

Change the Weather History Date:

Sunday, January 20, 2013

  Actual Average Record
Temperature  
Mean Temperature 10 °F -  
Max Temperature 14 °F 25 °F 39 °F (2002)
Min Temperature 5 °F 5 °F -13 °F (2008)
Degree Days  
Heating Degree Days 56    
Moisture  
Dew Point -4 °F    
Average Humidity 58    
Maximum Humidity 73    
Minimum Humidity 41    
Precipitation  
Precipitation 0.00 in - - ()
Sea Level Pressure  
Sea Level Pressure 30.29 in    
Wind  
Wind Speed 11 mph (WNW)    
Max Wind Speed 17 mph    
Max Gust Speed 24 mph    
Visibility 10 miles    
Events Snow    
Averages and records for this station are not official NWS values.
T = Trace of Precipitation, MM = Missing Value Source: NWS Daily Summary

Daily Weather History Graph

Daily Weather History Graph

Search for Another Location

Airport:

Trip Planner

Search our weather history database for the weather conditions in past years. The results will help you decide how hot, cold, wet, or windy it might be!

Date:

Astronomy

Jan. 20, 2013 Rise Set
Actual Time 7:35 AM CST 5:01 PM CST
Civil Twilight 7:03 AM CST 5:32 PM CST
Nautical Twilight 6:28 AM CST 6:08 PM CST
Astronomical Twilight 5:53 AM CST 6:42 PM CST
Moon 12:03 PM CST (1/20) 2:06 AM CST (1/20)
Length of Visible Light 10h 29m
Length of Day
9h 25m
Waxing Gibbous, 66% of the Moon is Illuminated
Jan 20
Waxing Gibbous
Jan 26
Full
Feb 3
Last Quarter
Feb 10
New
Feb 17
First Quarter

Hourly Weather History & Observations

Time (CST) Temp. Windchill Dew Point Humidity Pressure Visibility Wind Dir Wind Speed Gust Speed Precip Events Conditions
12:14 AM 8.6 °F -8.3 °F -4.0 °F 57% 30.16 in 10.0 mi NW 15.0 mph 23.0 mph N/A   Clear
12:34 AM 8.6 °F -8.3 °F -2.2 °F 62% 30.17 in 10.0 mi NNW 15.0 mph 23.0 mph N/A   Clear
12:55 AM 8.6 °F -9.5 °F -2.2 °F 62% 30.19 in 10.0 mi NNW 17.3 mph 21.9 mph N/A   Clear
1:14 AM 8.6 °F -7.7 °F -2.2 °F 62% 30.21 in 10.0 mi NW 13.8 mph 19.6 mph N/A   Clear
1:34 AM 8.6 °F -6.3 °F -2.2 °F 62% 30.22 in 10.0 mi NW 11.5 mph 21.9 mph N/A   Scattered Clouds
1:54 AM 8.6 °F -5.5 °F -2.2 °F 62% 30.24 in 10.0 mi NW 10.4 mph 17.3 mph N/A   Mostly Cloudy
2:14 AM 8.6 °F -3.7 °F -2.2 °F 62% 30.25 in 10.0 mi WNW 8.1 mph - N/A   Mostly Cloudy
2:34 AM 8.6 °F -7.0 °F -0.4 °F 67% 30.26 in 10.0 mi NW 12.7 mph - N/A   Mostly Cloudy
2:54 AM 5.0 °F -10.0 °F -4.0 °F 66% 30.27 in 10.0 mi NW 10.4 mph - N/A   Scattered Clouds
3:14 AM 5.0 °F -11.6 °F -4.0 °F 66% 30.28 in 10.0 mi WNW 12.7 mph - N/A   Clear
3:34 AM 5.0 °F -10.0 °F -4.0 °F 66% 30.28 in 10.0 mi WNW 10.4 mph - N/A   Clear
3:54 AM 5.0 °F -10.8 °F -4.0 °F 66% 30.28 in 10.0 mi NW 11.5 mph - N/A   Clear
4:14 AM 5.0 °F -10.0 °F -4.0 °F 66% 30.30 in 10.0 mi NW 10.4 mph - N/A   Clear
4:34 AM 5.0 °F -11.6 °F -4.0 °F 66% 30.30 in 10.0 mi NW 12.7 mph 16.1 mph N/A   Scattered Clouds
4:54 AM 5.0 °F -12.3 °F -4.0 °F 66% 30.30 in 10.0 mi NW 13.8 mph - N/A   Scattered Clouds
5:14 AM 5.0 °F -9.1 °F -4.0 °F 66% 30.31 in 10.0 mi NW 9.2 mph 17.3 mph N/A   Mostly Cloudy
5:35 AM 5.0 °F -8.1 °F -4.0 °F 66% 30.31 in 10.0 mi NW 8.1 mph - N/A   Scattered Clouds
5:54 AM 5.0 °F -10.0 °F -2.2 °F 72% 30.30 in 10.0 mi NW 10.4 mph 16.1 mph N/A   Clear
6:14 AM 5.0 °F -9.1 °F -4.0 °F 66% 30.32 in 10.0 mi NW 9.2 mph - N/A   Clear
6:35 AM 5.0 °F -10.8 °F -4.0 °F 66% 30.33 in 10.0 mi NW 11.5 mph - N/A   Clear
6:54 AM 5.0 °F -11.6 °F -4.0 °F 66% 30.34 in 10.0 mi NW 12.7 mph - N/A   Clear
7:14 AM 5.0 °F -9.1 °F -4.0 °F 66% 30.34 in 10.0 mi NW 9.2 mph - N/A   Clear
7:35 AM 5.0 °F -6.9 °F -4.0 °F 66% 30.33 in 10.0 mi NNW 6.9 mph - N/A   Clear
7:54 AM 5.0 °F -10.0 °F -5.8 °F 61% 30.34 in 10.0 mi NNW 10.4 mph - N/A   Clear
8:14 AM 5.0 °F -8.1 °F -5.8 °F 61% 30.33 in 10.0 mi NW 8.1 mph - N/A   Clear
8:35 AM 5.0 °F -9.1 °F -4.0 °F 66% 30.34 in 10.0 mi NNW 9.2 mph - N/A   Clear
8:54 AM 5.0 °F -9.1 °F -4.0 °F 66% 30.34 in 10.0 mi NW 9.2 mph - N/A   Clear
9:14 AM 5.0 °F -9.1 °F -4.0 °F 66% 30.36 in 10.0 mi NNW 9.2 mph - N/A   Clear
9:35 AM 5.0 °F -4.1 °F -4.0 °F 66% 30.37 in 10.0 mi West 4.6 mph - N/A   Clear
9:54 AM 8.6 °F -1.3 °F -4.0 °F 57% 30.37 in 10.0 mi West 5.8 mph - N/A   Clear
10:14 AM 8.6 °F -2.6 °F -4.0 °F 57% 30.38 in 10.0 mi WNW 6.9 mph - N/A   Clear
10:35 AM 8.6 °F -2.6 °F -4.0 °F 57% 30.38 in 10.0 mi WNW 6.9 mph - N/A   Clear
10:54 AM 8.6 °F -3.7 °F -4.0 °F 57% 30.38 in 10.0 mi WNW 8.1 mph - N/A   Clear
11:14 AM 10.4 °F -1.5 °F -4.0 °F 52% 30.38 in 10.0 mi WNW 8.1 mph - N/A   Clear
11:34 AM 10.4 °F 0.8 °F -4.0 °F 52% 30.37 in 10.0 mi WNW 5.8 mph - N/A   Clear
11:54 AM 10.4 °F -2.4 °F -4.0 °F 52% 30.36 in 10.0 mi NW 9.2 mph - N/A   Clear
12:15 PM 10.4 °F -0.4 °F -4.0 °F 52% 30.35 in 10.0 mi WNW 6.9 mph - N/A   Scattered Clouds
12:34 PM 12.2 °F 0.7 °F -5.8 °F 45% 30.35 in 10.0 mi WNW 8.1 mph - N/A   Mostly Cloudy
12:54 PM 14.0 °F 1.2 °F -4.0 °F 45% 30.34 in 10.0 mi WNW 10.4 mph - N/A   Scattered Clouds
1:15 PM 14.0 °F 2.0 °F -4.0 °F 45% 30.33 in 10.0 mi WNW 9.2 mph 12.7 mph N/A   Scattered Clouds
1:34 PM 10.4 °F -1.5 °F -5.8 °F 48% 30.33 in 10.0 mi WNW 8.1 mph 16.1 mph N/A   Mostly Cloudy
1:54 PM 14.0 °F 1.2 °F -4.0 °F 45% 30.32 in 10.0 mi WNW 10.4 mph 16.1 mph N/A   Scattered Clouds
2:15 PM 14.0 °F 2.0 °F -4.0 °F 45% 30.31 in 10.0 mi WNW 9.2 mph - N/A   Clear
2:34 PM 14.0 °F 1.2 °F -5.8 °F 41% 30.30 in 10.0 mi West 10.4 mph 17.3 mph N/A   Scattered Clouds
2:54 PM 14.0 °F 2.0 °F -5.8 °F 41% 30.30 in 10.0 mi WNW 9.2 mph - N/A   Mostly Cloudy
3:15 PM 14.0 °F -0.2 °F -5.8 °F 41% 30.30 in 10.0 mi WNW 12.7 mph 18.4 mph N/A   Scattered Clouds
3:34 PM 14.0 °F 0.5 °F -5.8 °F 41% 30.30 in 10.0 mi WNW 11.5 mph - N/A   Scattered Clouds
3:54 PM 14.0 °F 2.0 °F -5.8 °F 41% 30.30 in 10.0 mi WNW 9.2 mph - N/A   Clear
4:15 PM 14.0 °F 0.5 °F -5.8 °F 41% 30.30 in 10.0 mi WNW 11.5 mph 19.6 mph N/A   Clear
4:34 PM 10.4 °F -2.4 °F -5.8 °F 48% 30.29 in 10.0 mi West 9.2 mph 18.4 mph N/A   Scattered Clouds
4:54 PM 10.4 °F -2.4 °F -4.0 °F 52% 30.28 in 10.0 mi WNW 9.2 mph - N/A   Clear
5:15 PM 10.4 °F -2.4 °F -4.0 °F 52% 30.28 in 10.0 mi WNW 9.2 mph - N/A   Mostly Cloudy
5:34 PM 10.4 °F -2.4 °F -5.8 °F 48% 30.27 in 10.0 mi WNW 9.2 mph - N/A   Mostly Cloudy
5:54 PM 10.4 °F -3.3 °F -4.0 °F 52% 30.27 in 10.0 mi WNW 10.4 mph - N/A   Mostly Cloudy
6:15 PM 10.4 °F -1.5 °F -4.0 °F 52% 30.27 in 10.0 mi WNW 8.1 mph - N/A   Overcast
6:34 PM 10.4 °F -4.1 °F -4.0 °F 52% 30.27 in 10.0 mi WNW 11.5 mph - N/A   Overcast
6:54 PM 10.4 °F -4.8 °F -4.0 °F 52% 30.27 in 10.0 mi WNW 12.7 mph 17.3 mph N/A   Overcast
7:15 PM 10.4 °F -6.6 °F -2.2 °F 57% 30.27 in 10.0 mi WNW 16.1 mph 21.9 mph N/A   Overcast
7:34 PM 10.4 °F -4.1 °F -0.4 °F 62% 30.27 in 10.0 mi WNW 11.5 mph - N/A   Overcast
7:54 PM 10.4 °F -6.6 °F -0.4 °F 62% 30.27 in 7.0 mi NW 16.1 mph 19.6 mph N/A   Overcast
8:15 PM 10.4 °F -6.0 °F -0.4 °F 62% 30.27 in 10.0 mi NW 15.0 mph 21.9 mph N/A   Overcast
8:34 PM 8.6 °F -6.3 °F -2.2 °F 62% 30.26 in 10.0 mi WNW 11.5 mph 24.2 mph N/A   Scattered Clouds
8:54 PM 8.6 °F -3.7 °F -4.0 °F 57% 30.26 in 10.0 mi WNW 8.1 mph - N/A   Clear
9:15 PM 8.6 °F -1.3 °F -2.2 °F 62% 30.25 in 10.0 mi WNW 5.8 mph - N/A   Mostly Cloudy
9:34 PM 8.6 °F -2.6 °F -2.2 °F 62% 30.25 in 10.0 mi WNW 6.9 mph - N/A   Mostly Cloudy
9:54 PM 8.6 °F -1.3 °F -2.2 °F 62% 30.24 in 10.0 mi WNW 5.8 mph - N/A   Scattered Clouds
10:15 PM 8.6 °F -1.3 °F -0.4 °F 67% 30.24 in 7.0 mi West 5.8 mph - N/A   Mostly Cloudy
10:34 PM 8.6 °F -1.3 °F 1.4 °F 73% 30.24 in 7.0 mi West 5.8 mph - N/A   Overcast
10:54 PM 8.6 °F -4.7 °F 1.4 °F 73% 30.24 in 5.0 mi WNW 9.2 mph - N/A Snow Light Snow
11:15 PM 5.0 °F -11.6 °F -4.0 °F 66% 30.24 in 5.0 mi WNW 12.7 mph 23.0 mph N/A   Haze
11:34 PM 5.0 °F -10.8 °F -4.0 °F 66% 30.25 in 10.0 mi WNW 11.5 mph 19.6 mph N/A   Clear
11:54 PM 5.0 °F -11.6 °F -4.0 °F 66% 30.24 in 10.0 mi WNW 12.7 mph 18.4 mph N/A   Mostly Cloudy